DW8673 Jerrabomberra AU current weather conditions

sailwx.info

Wind from 075 at 2 knots gusting 6

Air temperature 16.7° C
Dewpoint 4.7° C

Last reported at 2014-Oct-20 03:43 UTC.
Time now 2014-Oct-20 04:30 UTC

Location: S 35°23' E 149°12'.
View on Google Maps.

See reports from other nearby stations

  
Tides and Currents Weather Stations Pressure Air Temp Water Temp Dewpoint Dewpoint Depression Visibility Wind Speed Wind Dir Waves Ship Positions
date/time (UTC)wind fromknots sea level pressurealtimeterstation pressurevisibilityair tempwater tempwave heightnotes
2014-Oct-20 03:43 075 2 gusting 6 16.7
2014-Oct-20 03:33 042 2 gusting 6 16.1
2014-Oct-20 03:13 121 4 gusting 6 16.7
2014-Oct-20 03:03 107 3 gusting 6 17.2
2014-Oct-20 02:43 173 4 gusting 7 17.8
2014-Oct-20 02:33 132 2 gusting 10 18.3
2014-Oct-20 02:13 124 3 gusting 5 18.3
2014-Oct-20 02:03 099 1 gusting 5 18.3
2014-Oct-20 01:43 136 1 gusting 5 17.8
2014-Oct-20 01:33 070 2 gusting 6 17.2
2014-Oct-20 01:13 135 1 gusting 4 17.2
2014-Oct-20 01:03 068 2 gusting 6 17.2
2014-Oct-20 00:43 100 2 gusting 6 18.9
2014-Oct-20 00:33 134 1 gusting 5 19.4
2014-Oct-20 00:13 085 1 gusting 4 18.3
2014-Oct-20 00:03 114 2 gusting 5 18.9
2014-Oct-19 23:43 013 1 gusting 5 18.3
2014-Oct-19 23:33 099 1 gusting 4 18.9
2014-Oct-19 23:13 076 1 gusting 4 17.2
2014-Oct-19 23:03 087 1 gusting 4 17.2
2014-Oct-19 22:43 010 18.3
2014-Oct-19 22:33 111 1 gusting 5 18.3
2014-Oct-19 22:13 113 1 gusting 6 18.9
2014-Oct-19 22:03 163 3 gusting 6 18.3
2014-Oct-19 21:43 139 5 gusting 7 16.7
2014-Oct-19 21:33 121 2 gusting 6 17.2
2014-Oct-19 21:13 230 2 gusting 7 16.1
2014-Oct-19 21:03 171 3 gusting 11 16.7
2014-Oct-19 20:43 136 2 gusting 7 16.1
2014-Oct-19 20:33 123 2 gusting 11 15.6
2014-Oct-19 20:13 104 5 gusting 8 13.9
2014-Oct-19 20:03 153 5 gusting 11 13.9
2014-Oct-19 19:43 170 4 gusting 6 13.3
2014-Oct-19 19:33 159 2 gusting 8 13.3
2014-Oct-19 19:13 134 3 gusting 10 12.8
2014-Oct-19 19:03 167 2 gusting 6 12.8
2014-Oct-19 18:43 171 2 gusting 5 11.7
2014-Oct-19 18:33 354 1 gusting 6 11.1
2014-Oct-19 18:13 248 0 gusting 0 10.6
2014-Oct-19 18:03 161 10.6
2014-Oct-19 17:43 158 11.1
2014-Oct-19 17:33 158 11.1
2014-Oct-19 17:13 158 11.7
2014-Oct-19 17:03 158 11.7
2014-Oct-19 16:43 202 11.7
2014-Oct-19 16:33 202 11.7
2014-Oct-19 16:13 270 11.7
2014-Oct-19 16:03 270 11.7
2014-Oct-19 15:43 158 11.7
2014-Oct-19 15:33 135 12.2
2014-Oct-19 15:13 248 12.2
2014-Oct-19 15:03 112 12.2
2014-Oct-19 14:43 155 12.2
2014-Oct-19 14:33 158 12.8
2014-Oct-19 14:13 270 12.8
2014-Oct-19 14:03 270 13.3
2014-Oct-19 13:43 112 13.3
2014-Oct-19 13:33 112 13.3
2014-Oct-19 13:13 180 13.9
2014-Oct-19 13:03 202 13.9
2014-Oct-19 12:43 090 13.9
2014-Oct-19 12:33 090 13.9
2014-Oct-19 12:13 135 14.4
2014-Oct-19 12:03 112 14.4
2014-Oct-19 11:43 045 15.0
2014-Oct-19 11:33 338 15.6
2014-Oct-19 11:13 142 16.1
2014-Oct-19 11:03 219 16.1
2014-Oct-19 10:43 146 0 gusting 1 16.7
2014-Oct-19 10:33 292 17.2
2014-Oct-19 10:13 090 17.8
2014-Oct-19 10:03 090 17.8
2014-Oct-19 09:43 090 18.3
2014-Oct-19 09:33 274 18.9
2014-Oct-19 09:13 090 0 gusting 4 20.0
2014-Oct-19 09:03 091 0 gusting 2 20.0
2014-Oct-19 08:43 107 0 gusting 1 20.6
2014-Oct-19 08:33 087 0 gusting 1 21.1
2014-Oct-19 08:13 079 22.2
2014-Oct-19 08:03 317 0 gusting 5 22.8
2014-Oct-19 07:43 344 2 gusting 5 23.3
2014-Oct-19 07:33 021 2 gusting 5 23.3
2014-Oct-19 07:13 303 0 gusting 6 23.3
2014-Oct-19 07:03 006 2 gusting 6 23.3
2014-Oct-19 06:43 008 1 gusting 5 24.4
2014-Oct-19 06:33 017 2 gusting 6 25.0
2014-Oct-19 06:13 332 1 gusting 6 25.6
2014-Oct-19 06:03 279 4 gusting 7 25.0
2014-Oct-19 05:43 349 2 gusting 5 26.1
2014-Oct-19 05:33 332 2 gusting 6 27.8
2014-Oct-19 05:13 329 2 gusting 6 28.9
2014-Oct-19 05:03 329 2 gusting 6 28.9
2014-Oct-19 04:43 342 4 gusting 6 27.8
2014-Oct-19 04:33 030 4 gusting 8 28.3
2014-Oct-19 04:13 293 3 gusting 6 28.9
2014-Oct-19 04:03 346 3 gusting 5 30.0
2014-Oct-19 03:43 298 3 gusting 6 28.9
2014-Oct-19 03:33 285 2 gusting 6 28.9
2014-Oct-19 03:13 268 2 gusting 6 28.9
2014-Oct-19 03:03 291 2 gusting 5 29.4
2014-Oct-19 02:43 312 2 gusting 6 28.9
2014-Oct-19 02:33 339 3 gusting 5 28.3
2014-Oct-19 02:13 038 1 gusting 4 27.8
2014-Oct-19 02:03 156 1 gusting 6 27.2
2014-Oct-19 01:43 321 2 gusting 6 26.7
2014-Oct-19 01:33 352 1 gusting 5 27.2
2014-Oct-19 01:13 286 1 gusting 5 26.1
2014-Oct-19 01:03 024 2 gusting 5 25.6
2014-Oct-19 00:43 337 1 gusting 5 25.0
2014-Oct-19 00:33 324 2 gusting 5 23.9
2014-Oct-19 00:13 333 1 gusting 2 23.9
2014-Oct-19 00:03 356 1 gusting 5 22.8
2014-Oct-18 23:43 355 1 gusting 2 22.2
2014-Oct-18 23:33 356 2 gusting 4 21.7
2014-Oct-18 23:13 285 0 gusting 1 21.1
2014-Oct-18 23:03 236 1 gusting 4 20.6
2014-Oct-18 22:43 282 1 gusting 2 19.4
2014-Oct-18 22:33 268 0 gusting 1 19.4
2014-Oct-18 22:13 264 1 gusting 2 18.3
2014-Oct-18 22:03 233 0 gusting 2 17.2
2014-Oct-18 21:43 250 0 gusting 1 16.1
2014-Oct-18 21:33 234 1 gusting 2 15.6
2014-Oct-18 21:13 206 0 gusting 1 14.4
2014-Oct-18 21:03 135 13.9
2014-Oct-18 20:43 253 12.8
2014-Oct-18 20:33 265 11.7
2014-Oct-18 20:13 112 8.3
2014-Oct-18 20:03 112 6.1
2014-Oct-18 19:43 202 5.6
2014-Oct-18 19:33 202 5.6
2014-Oct-18 19:13 270 5.6
2014-Oct-18 19:03 225 5.6
2014-Oct-18 18:43 112 6.1
2014-Oct-18 18:33 112 6.1
2014-Oct-18 18:13 112 6.1
2014-Oct-18 18:03 112 6.1
2014-Oct-18 17:43 112 6.7
2014-Oct-18 17:33 112 6.7
2014-Oct-18 17:13 112 6.7
2014-Oct-18 17:03 112 6.7
2014-Oct-18 16:43 112 6.7
2014-Oct-18 16:33 112 7.2
2014-Oct-18 16:13 045 7.2
2014-Oct-18 16:03 202 7.2
2014-Oct-18 15:43 090 7.8
2014-Oct-18 15:33 7.8
2014-Oct-18 15:13 248 7.8
2014-Oct-18 15:03 112 8.3
2014-Oct-18 14:43 090 8.3
2014-Oct-18 14:33 090 8.3
2014-Oct-18 14:13 129 8.3
2014-Oct-18 14:03 090 8.9
2014-Oct-18 13:43 158 8.9
2014-Oct-18 13:33 248 8.9
2014-Oct-18 13:13 202 9.4
2014-Oct-18 13:03 225 9.4
2014-Oct-18 12:43 202 10.0
2014-Oct-18 12:33 202 10.6
2014-Oct-18 12:13 135 10.6
2014-Oct-18 12:03 135 11.1
2014-Oct-18 11:43 068 11.1
2014-Oct-18 11:33 225 11.1
2014-Oct-18 11:13 090 11.7
2014-Oct-18 11:03 231 11.7
2014-Oct-18 10:43 112 12.2
2014-Oct-18 10:33 158 12.8
2014-Oct-18 10:13 202 13.3
2014-Oct-18 10:03 045 13.3
2014-Oct-18 09:43 144 14.4
2014-Oct-18 09:33 180 14.4
2014-Oct-18 09:13 112 15.6
2014-Oct-18 09:03 112 15.6
2014-Oct-18 08:43 068 16.7
2014-Oct-18 08:33 068 17.2
2014-Oct-18 08:13 158 18.9
2014-Oct-18 08:03 292 20.0
2014-Oct-18 07:43 314 0 gusting 5 21.1
2014-Oct-18 07:33 017 2 gusting 5 22.2
2014-Oct-18 07:13 004 1 gusting 4 22.8
2014-Oct-18 07:03 345 1 gusting 5 22.8
2014-Oct-18 06:43 344 2 gusting 5 23.3
2014-Oct-18 06:33 010 2 gusting 5 22.8
2014-Oct-18 06:13 316 2 gusting 5 23.9
2014-Oct-18 06:03 321 2 gusting 5 23.9
2014-Oct-18 05:43 315 1 gusting 4 25.0
2014-Oct-18 05:33 343 3 gusting 5 25.0
2014-Oct-18 05:13 016 1 gusting 5 25.0
2014-Oct-18 05:03 242 1 gusting 4 25.0
2014-Oct-18 04:43 122 1 gusting 2 25.0
2014-Oct-18 04:33 284 1 gusting 4 24.4
2014-Oct-18 04:13 269 1 gusting 4 25.0
2014-Oct-18 04:03 338 2 gusting 5 25.0